| time (UTC) | temp C | wind direction | speed KPH | gust KPH | rain 1hr cm | rain 24hr cm | rain mn cm | humidity % | barometer mb |
| 20260506205752 | 13 | 221 | 35.4 | 61.2 | 0.00 | 0.00 | 0.00 | 100 | 892.0 |
| 20260506205702 | 13 | 212 | 33.8 | 61.2 | 0.00 | 0.00 | 0.00 | 100 | 890.7 |
| 20260506205550 | 13 | 210 | 33.8 | 59.5 | 0.00 | 0.00 | 0.00 | 100 | 891.1 |
| 20260506205501 | 13 | 210 | 33.8 | 59.5 | 0.00 | 0.00 | 0.00 | 100 | 893.1 |
| 20260506205349 | 13 | 211 | 37.0 | 66.0 | 0.00 | 0.00 | 0.00 | 100 | 897.7 |
| 20260506205259 | 13 | 213 | 38.6 | 66.0 | 0.00 | 0.00 | 0.00 | 100 | 891.0 |
| 20260506205148 | 13 | 214 | 38.6 | 66.0 | 0.00 | 0.00 | 0.00 | 100 | 890.8 |
| 20260506205048 | 13 | 211 | 38.6 | 70.8 | 0.00 | 0.00 | 0.00 | 100 | 891.4 |
| 20260506204947 | 13 | 211 | 37.0 | 70.8 | 0.00 | 0.00 | 0.00 | 100 | 895.5 |
| 20260506204857 | 13 | 211 | 35.4 | 70.8 | 0.00 | 0.00 | 0.00 | 100 | 895.5 |
| 20260506204746 | 13 | 214 | 33.8 | 70.8 | 0.00 | 0.00 | 0.00 | 100 | 897.4 |
| 20260506204656 | 13 | 212 | 33.8 | 61.2 | 0.00 | 0.00 | 0.00 | 100 | 897.4 |
| 20260506204545 | 13 | 212 | 33.8 | 61.2 | 0.00 | 0.00 | 0.00 | 100 | 891.8 |
| 20260506204454 | 13 | 216 | 37.0 | 61.2 | 0.00 | 0.00 | 0.00 | 100 | 892.9 |
| 20260506204344 | 13 | 216 | 37.0 | 57.9 | 0.00 | 0.00 | 0.00 | 100 | 892.3 |
| 20260506204254 | 13 | 222 | 37.0 | 57.9 | 0.00 | 0.00 | 0.00 | 100 | 892.3 |
| 20260506204043 | 13 | 220 | 33.8 | 61.2 | 0.00 | 0.00 | 0.00 | 100 | 891.4 |
| 20260506203852 | 13 | 212 | 33.8 | 61.2 | 0.00 | 0.00 | 0.00 | 100 | 896.5 |
| 20260506203650 | 13 | 214 | 33.8 | 61.2 | 0.00 | 0.00 | 0.00 | 100 | 891.9 |
| 20260506203541 | 13 | 214 | 35.4 | 69.2 | 0.00 | 0.00 | 0.00 | 100 | 895.2 |
| 20260506203450 | 13 | 214 | 35.4 | 69.2 | 0.00 | 0.00 | 0.00 | 100 | 895.2 |
| 20260506203032 | 13 | 217 | 35.4 | 77.2 | 0.00 | 0.00 | 0.00 | 100 | 893.8 |
| 20260506202524 | 13 | 212 | 35.4 | 61.2 | 0.00 | 0.00 | 0.00 | 100 | 891.8 |
| 20260506202013 | 13 | 213 | 37.0 | 67.6 | 0.00 | 0.00 | 0.00 | 100 | 891.3 |
| 20260506201510 | 13 | 218 | 35.4 | 61.2 | 0.00 | 0.00 | 0.00 | 100 | 891.4 |
| 20260506201007 | 13 | 216 | 37.0 | 64.4 | 0.00 | 0.00 | 0.00 | 100 | 893.0 |
| 20260506200504 | 13 | 214 | 41.8 | 67.6 | 0.00 | 0.00 | 0.00 | 100 | 891.7 |
| 20260506200002 | 13 | 220 | 37.0 | 64.4 | 0.00 | 0.00 | 0.00 | 100 | 892.6 |
| 20260506195500 | 13 | 213 | 35.4 | 57.9 | 0.00 | 0.00 | 0.00 | 100 | 894.8 |
| 20260506194956 | 13 | 212 | 35.4 | 62.8 | 0.00 | 0.00 | 0.00 | 100 | 891.7 |
| 20260506194454 | 14 | 220 | 40.2 | 61.2 | 0.00 | 0.00 | 0.00 | 100 | 892.4 |
| 20260506193951 | 13 | 217 | 35.4 | 69.2 | 0.00 | 0.00 | 0.00 | 100 | 891.7 |
| 20260506193454 | 13 | 221 | 35.4 | 57.9 | 0.00 | 0.00 | 0.00 | 100 | 892.5 |
| 20260506193449 | 14 | 221 | 35.4 | 57.9 | 0.00 | 0.00 | 0.00 | 100 | 894.0 |
| 20260506192947 | 13 | 214 | 32.2 | 51.5 | 0.00 | 0.00 | 0.00 | 100 | 892.4 |
| 20260506192526 | 13 | 211 | 29.0 | 62.8 | 0.00 | 0.00 | 0.00 | 100 | 892.6 |
| 20260506192444 | 13 | 211 | 29.0 | 62.8 | 0.00 | 0.00 | 0.00 | 100 | 892.6 |
| 20260506192248 | 13 | 208 | 22.5 | 37.0 | 0.00 | 0.00 | 0.00 | 100 | 892.3 |
| 20260506191942 | 13 | 199 | 25.7 | 49.9 | 0.00 | 0.00 | 0.00 | 100 | 891.9 |
| 20260506191440 | 14 | 206 | 29.0 | 48.3 | 0.00 | 0.00 | 0.00 | 100 | 892.7 |
| 20260506190937 | 14 | 203 | 25.7 | 41.8 | 0.00 | 0.00 | 0.00 | 100 | 893.3 |
| 20260506190435 | 14 | 202 | 22.5 | 40.2 | 0.00 | 0.00 | 0.00 | 100 | 892.9 |
| 20260506185933 | 14 | 199 | 27.4 | 49.9 | 0.00 | 0.00 | 0.00 | 100 | 894.1 |
| 20260506185432 | 14 | 204 | 25.7 | 40.2 | 0.00 | 0.00 | 0.00 | 100 | 892.9 |
| 20260506184929 | 14 | 206 | 25.7 | 45.1 | 0.00 | 0.00 | 0.00 | 100 | 893.6 |
| 20260506184426 | 14 | 202 | 22.5 | 40.2 | 0.00 | 0.00 | 0.00 | 100 | 893.1 |
| 20260506183422 | 14 | 207 | 25.7 | 51.5 | 0.00 | 0.00 | 0.00 | 100 | 893.0 |
| 20260506182919 | 14 | 207 | 24.1 | 41.8 | 0.00 | 0.00 | 0.00 | 100 | 892.7 |
| 20260506182417 | 14 | 208 | 25.7 | 38.6 | 0.00 | 0.00 | 0.00 | 100 | 892.9 |
| 20260506181915 | 14 | 207 | 25.7 | 45.1 | 0.00 | 0.00 | 0.00 | 100 | 892.6 |
| 20260506181411 | 14 | 207 | 22.5 | 37.0 | 0.00 | 0.00 | 0.00 | 100 | 893.2 |
| 20260506181207 | 14 | 208 | 24.1 | 48.3 | 0.00 | 0.00 | 0.00 | 100 | 893.1 |
| 20260506181003 | 14 | 207 | 25.7 | 48.3 | 0.00 | 0.00 | 0.00 | 100 | 892.9 |
| 20260506180902 | 14 | 208 | 25.7 | 48.3 | 0.00 | 0.00 | 0.00 | 100 | 892.7 |
| 20260506180759 | 14 | 206 | 25.7 | 40.2 | 0.00 | 0.00 | 0.00 | 100 | 892.7 |
| 20260506180558 | 14 | 208 | 24.1 | 41.8 | 0.00 | 0.00 | 0.00 | 100 | 892.9 |
| 20260506180357 | 14 | 208 | 24.1 | 41.8 | 0.00 | 0.00 | 0.00 | 100 | 898.8 |
| 20260506180155 | 14 | 205 | 24.1 | 40.2 | 0.00 | 0.00 | 0.00 | 100 | 893.4 |
| 20260506175954 | 14 | 204 | 27.4 | 43.5 | 0.00 | 0.00 | 0.00 | 100 | 893.5 |
| 20260506175854 | 14 | 201 | 27.4 | 51.5 | 0.00 | 0.00 | 0.00 | 100 | 893.5 |
| 20260506175540 | 15 | 206 | 29.0 | 54.7 | 0.00 | 0.00 | 0.00 | 100 | 893.3 |
| 20260506175339 | 15 | 205 | 24.1 | 53.1 | 0.00 | 0.00 | 0.00 | 100 | 893.4 |
| 20260506175138 | 14 | 204 | 24.1 | 40.2 | 0.00 | 0.00 | 0.00 | 100 | 893.6 |
| 20260506174941 | 15 | 207 | 24.1 | 41.8 | 0.00 | 0.00 | 0.00 | 100 | 893.6 |
| 20260506174937 | 15 | 207 | 24.1 | 41.8 | 0.00 | 0.00 | 0.00 | 100 | 893.7 |
| 20260506174837 | 15 | 208 | 22.5 | 41.8 | 0.00 | 0.00 | 0.00 | 100 | 893.7 |
| 20260506174724 | 15 | 206 | 22.5 | 40.2 | 0.00 | 0.00 | 0.00 | 100 | 893.7 |
| 20260506174523 | 15 | 208 | 24.1 | 41.8 | 0.00 | 0.00 | 0.00 | 100 | 893.7 |
| 20260506174323 | 15 | 212 | 27.4 | 54.7 | 0.00 | 0.00 | 0.00 | 100 | 893.5 |
| 20260506174122 | 15 | 215 | 27.4 | 54.7 | 0.00 | 0.00 | 0.00 | 100 | 893.6 |
| 20260506173921 | 15 | 214 | 25.7 | 41.8 | 0.00 | 0.00 | 0.00 | 100 | 893.7 |
| 20260506173822 | 15 | 213 | 25.7 | 46.7 | 0.00 | 0.00 | 0.00 | 100 | 893.5 |
| 20260506173720 | 15 | 208 | 25.7 | 49.9 | 0.00 | 0.00 | 0.00 | 100 | 893.5 |
| 20260506173519 | 15 | 211 | 30.6 | 49.9 | 0.00 | 0.00 | 0.00 | 100 | 893.4 |
| 20260506173317 | 15 | 217 | 27.4 | 46.7 | 0.00 | 0.00 | 0.00 | 100 | 893.5 |
| 20260506173116 | 15 | 218 | 24.1 | 46.7 | 0.00 | 0.00 | 0.00 | 100 | 893.6 |
| 20260506172915 | 15 | 218 | 22.5 | 46.7 | 0.00 | 0.00 | 0.00 | 100 | 893.6 |
| 20260506172816 | 15 | 211 | 22.5 | 43.5 | 0.00 | 0.00 | 0.00 | 100 | 893.7 |
| 20260506172714 | 15 | 215 | 25.7 | 45.1 | 0.00 | 0.00 | 0.00 | 100 | 893.7 |
| 20260506172514 | 15 | 211 | 29.0 | 45.1 | 0.00 | 0.00 | 0.00 | 100 | 893.5 |
| 20260506172313 | 15 | 210 | 29.0 | 48.3 | 0.00 | 0.00 | 0.00 | 100 | 893.6 |
| 20260506172115 | 15 | 213 | 29.0 | 48.3 | 0.00 | 0.00 | 0.00 | 100 | 893.6 |
| 20260506172112 | 15 | 213 | 29.0 | 48.3 | 0.00 | 0.00 | 0.00 | 100 | 893.5 |
| 20260506171911 | 15 | 219 | 29.0 | 48.3 | 0.00 | 0.00 | 0.00 | 100 | 893.6 |
| 20260506171812 | 15 | 220 | 29.0 | 48.3 | 0.00 | 0.00 | 0.00 | 100 | 893.6 |
| 20260506171710 | 15 | 218 | 29.0 | 45.1 | 0.00 | 0.00 | 0.00 | 100 | 893.5 |
| 20260506171510 | 15 | 215 | 29.0 | 49.9 | 0.00 | 0.00 | 0.00 | 100 | 893.6 |
| 20260506171309 | 15 | 216 | 27.4 | 49.9 | 0.00 | 0.00 | 0.00 | 100 | 893.5 |
| 20260506171108 | 15 | 217 | 24.1 | 45.1 | 0.00 | 0.00 | 0.00 | 100 | 893.6 |
| 20260506170907 | 15 | 219 | 25.7 | 41.8 | 0.00 | 0.00 | 0.00 | 100 | 893.7 |
| 20260506170807 | 15 | 216 | 27.4 | 43.5 | 0.00 | 0.00 | 0.00 | 100 | 893.7 |
| 20260506170606 | 15 | 219 | 27.4 | 46.7 | 0.00 | 0.00 | 0.00 | 100 | 893.6 |
| 20260506170453 | 15 | 220 | 29.0 | 48.3 | 0.00 | 0.00 | 0.00 | 100 | 893.7 |
| 20260506170249 | 15 | 226 | 30.6 | 51.5 | 0.00 | 0.00 | 0.00 | 100 | 893.6 |
| 20260506170043 | 15 | 224 | 29.0 | 51.5 | 0.00 | 0.00 | 0.00 | 100 | 893.6 |
| 20260506165839 | 15 | 213 | 25.7 | 56.3 | 0.00 | 0.00 | 0.00 | 100 | 893.8 |
| 20260506165738 | 15 | 209 | 25.7 | 56.3 | 0.00 | 0.00 | 0.00 | 100 | 893.8 |
| 20260506165635 | 15 | 212 | 25.7 | 56.3 | 0.00 | 0.00 | 0.00 | 100 | 893.7 |
| 20260506165432 | 15 | 213 | 27.4 | 40.2 | 0.00 | 0.00 | 0.00 | 100 | 893.9 |
| 20260506165227 | 15 | 211 | 27.4 | 49.9 | 0.00 | 0.00 | 0.00 | 100 | 893.9 |
| 20260506165026 | 15 | 212 | 29.0 | 53.1 | 0.00 | 0.00 | 0.00 | 100 | 893.8 |
| 20260506164928 | 15 | 212 | 27.4 | 53.1 | 0.00 | 0.00 | 0.00 | 100 | 893.8 |
| 20260506164825 | 15 | 208 | 29.0 | 53.1 | 0.00 | 0.00 | 0.00 | 100 | 893.8 |
| 20260506164725 | 15 | 209 | 29.0 | 48.3 | 0.00 | 0.00 | 0.00 | 100 | 893.7 |
| 20260506164621 | 15 | 212 | 30.6 | 48.3 | 0.00 | 0.00 | 0.00 | 100 | 893.7 |
| 20260506164526 | 15 | 214 | 30.6 | 48.3 | 0.00 | 0.00 | 0.00 | 100 | 893.7 |
| 20260506164420 | 15 | 223 | 30.6 | 48.3 | 0.00 | 0.00 | 0.00 | 100 | 893.6 |
| 20260506164328 | 15 | 221 | 27.4 | 48.3 | 0.00 | 0.00 | 0.00 | 100 | 893.7 |
| 20260506164219 | 15 | 214 | 25.7 | 48.3 | 0.00 | 0.00 | 0.00 | 100 | 893.9 |
| 20260506164124 | 15 | 209 | 25.7 | 48.3 | 0.00 | 0.00 | 0.00 | 100 | 893.8 |
| 20260506164019 | 15 | 207 | 25.7 | 48.3 | 0.00 | 0.00 | 0.00 | 100 | 893.9 |
| 20260506163923 | 15 | 205 | 25.7 | 46.7 | 0.00 | 0.00 | 0.00 | 100 | 893.9 |
| 20260506163818 | 15 | 205 | 27.4 | 46.7 | 0.00 | 0.00 | 0.00 | 100 | 894.0 |
| 20260506163718 | 15 | 204 | 30.6 | 46.7 | 0.00 | 0.00 | 0.00 | 100 | 893.8 |
| 20260506163617 | 15 | 206 | 29.0 | 45.1 | 0.00 | 0.00 | 0.00 | 100 | 893.7 |
| 20260506163521 | 15 | 206 | 29.0 | 45.1 | 0.00 | 0.00 | 0.00 | 100 | 893.6 |
| 20260506163416 | 15 | 209 | 29.0 | 45.1 | 0.00 | 0.00 | 0.00 | 100 | 893.7 |
| 20260506163321 | 15 | 211 | 29.0 | 53.1 | 0.00 | 0.00 | 0.00 | 100 | 893.7 |
| 20260506163215 | 15 | 209 | 30.6 | 53.1 | 0.00 | 0.00 | 0.00 | 100 | 893.6 |
| 20260506163120 | 15 | 209 | 32.2 | 53.1 | 0.00 | 0.00 | 0.00 | 100 | 893.6 |
| 20260506163013 | 15 | 208 | 32.2 | 53.1 | 0.00 | 0.00 | 0.00 | 100 | 893.6 |
| 20260506162917 | 15 | 210 | 30.6 | 48.3 | 0.00 | 0.00 | 0.00 | 100 | 893.6 |
| 20260506162812 | 15 | 215 | 29.0 | 46.7 | 0.00 | 0.00 | 0.00 | 100 | 893.7 |
| 20260506162712 | 15 | 215 | 27.4 | 45.1 | 0.00 | 0.00 | 0.00 | 100 | 893.9 |
| 20260506162610 | 15 | 223 | 25.7 | 45.1 | 0.00 | 0.00 | 0.00 | 100 | 894.0 |
| 20260506162514 | 15 | 223 | 25.7 | 45.1 | 0.00 | 0.00 | 0.00 | 100 | 894.0 |
| 20260506162408 | 15 | 218 | 25.7 | 45.1 | 0.00 | 0.00 | 0.00 | 100 | 894.0 |
| 20260506162313 | 15 | 222 | 29.0 | 49.9 | 0.00 | 0.00 | 0.00 | 100 | 893.9 |
| 20260506162207 | 15 | 218 | 29.0 | 49.9 | 0.00 | 0.00 | 0.00 | 100 | 893.9 |
| 20260506162112 | 15 | 219 | 30.6 | 49.9 | 0.00 | 0.00 | 0.00 | 100 | 893.9 |
| 20260506162007 | 15 | 223 | 30.6 | 49.9 | 0.00 | 0.00 | 0.00 | 100 | 893.8 |
| 20260506161912 | 15 | 223 | 30.6 | 49.9 | 0.00 | 0.00 | 0.00 | 100 | 894.1 |
| 20260506161807 | 15 | 223 | 29.0 | 48.3 | 0.00 | 0.00 | 0.00 | 100 | 894.2 |
| 20260506161707 | 15 | 219 | 29.0 | 48.3 | 0.00 | 0.00 | 0.00 | 100 | 894.1 |
| 20260506161606 | 15 | 219 | 29.0 | 48.3 | 0.00 | 0.00 | 0.00 | 100 | 894.0 |
| 20260506161511 | 15 | 212 | 29.0 | 49.9 | 0.00 | 0.00 | 0.00 | 100 | 894.0 |
| 20260506161406 | 15 | 212 | 29.0 | 49.9 | 0.00 | 0.00 | 0.00 | 100 | 893.9 |
| 20260506161311 | 15 | 212 | 29.0 | 49.9 | 0.00 | 0.00 | 0.00 | 100 | 893.9 |
| 20260506161205 | 15 | 212 | 27.4 | 49.9 | 0.00 | 0.00 | 0.00 | 100 | 893.9 |
| 20260506161109 | 15 | 215 | 27.4 | 49.9 | 0.00 | 0.00 | 0.00 | 100 | 894.1 |
| 20260506161004 | 15 | 221 | 25.7 | 43.5 | 0.00 | 0.00 | 0.00 | 100 | 894.1 |
| 20260506160908 | 15 | 223 | 27.4 | 45.1 | 0.00 | 0.00 | 0.00 | 100 | 894.0 |
| 20260506160804 | 15 | 222 | 29.0 | 45.1 | 0.00 | 0.00 | 0.00 | 100 | 893.9 |
| 20260506160704 | 15 | 220 | 29.0 | 51.5 | 0.00 | 0.00 | 0.00 | 100 | 893.9 |
| 20260506160602 | 15 | 220 | 30.6 | 51.5 | 0.00 | 0.00 | 0.00 | 100 | 893.8 |
| 20260506160506 | 15 | 220 | 29.0 | 51.5 | 0.00 | 0.00 | 0.00 | 100 | 893.8 |
| 20260506160401 | 15 | 221 | 30.6 | 51.5 | 0.00 | 0.00 | 0.00 | 100 | 893.9 |
| 20260506160304 | 15 | 220 | 32.2 | 51.5 | 0.00 | 0.00 | 0.00 | 100 | 893.7 |
| 20260506160200 | 15 | 223 | 32.2 | 51.5 | 0.00 | 0.00 | 0.00 | 100 | 893.7 |
| 20260506160104 | 15 | 222 | 32.2 | 51.5 | 0.00 | 0.00 | 0.00 | 100 | 893.7 |
| 20260506155958 | 15 | 219 | 32.2 | 49.9 | 0.00 | 0.00 | 0.00 | 100 | 893.9 |
| 20260506155903 | 15 | 216 | 30.6 | 49.9 | 0.00 | 0.00 | 0.00 | 100 | 893.9 |
| 20260506155756 | 16 | 214 | 29.0 | 49.9 | 0.00 | 0.00 | 0.00 | 100 | 893.8 |
| 20260506155655 | 16 | 213 | 29.0 | 49.9 | 0.00 | 0.00 | 0.00 | 100 | 893.8 |
| 20260506155520 | 16 | 216 | 29.0 | 48.3 | 0.00 | 0.00 | 0.00 | 100 | 893.7 |
| 20260506155318 | 16 | 210 | 32.2 | 51.5 | 0.00 | 0.00 | 0.00 | 100 | 893.8 |
| 20260506155117 | 16 | 206 | 32.2 | 51.5 | 0.00 | 0.00 | 0.00 | 100 | 893.8 |
| 20260506155016 | 16 | 210 | 32.2 | 51.5 | 0.00 | 0.00 | 0.00 | 100 | 893.9 |
| 20260506154853 | 16 | 213 | 30.6 | 46.7 | 0.00 | 0.00 | 0.00 | 100 | 893.8 |
| 20260506154647 | 16 | 226 | 29.0 | 46.7 | 0.00 | 0.00 | 0.00 | 100 | 893.7 |
| 20260506154443 | 16 | 232 | 24.1 | 37.0 | 0.00 | 0.00 | 0.00 | 100 | 893.6 |
| 20260506154342 | 16 | 238 | 20.9 | 37.0 | 0.00 | 0.00 | 0.00 | 100 | 893.9 |
| 20260506154239 | 16 | 236 | 19.3 | 32.2 | 0.00 | 0.00 | 0.00 | 100 | 894.0 |
| 20260506154035 | 16 | 216 | 19.3 | 32.2 | 0.00 | 0.00 | 0.00 | 100 | 894.0 |
| 20260506153832 | 16 | 211 | 20.9 | 32.2 | 0.00 | 0.00 | 0.00 | 100 | 894.3 |
| 20260506153630 | 16 | 224 | 22.5 | 38.6 | 0.00 | 0.00 | 0.00 | 100 | 894.6 |
| 20260506153429 | 16 | 210 | 22.5 | 38.6 | 0.00 | 0.00 | 0.00 | 100 | 894.7 |
| 20260506153330 | 16 | 209 | 20.9 | 38.6 | 0.00 | 0.00 | 0.00 | 100 | 894.8 |
| 20260506153228 | 16 | 205 | 19.3 | 35.4 | 0.00 | 0.00 | 0.00 | 100 | 895.1 |
| 20260506153028 | 16 | 204 | 22.5 | 37.0 | 0.00 | 0.00 | 0.00 | 100 | 894.5 |
| 20260506152827 | 16 | 209 | 22.5 | 37.0 | 0.00 | 0.00 | 0.00 | 100 | 894.3 |
| 20260506152616 | 16 | 228 | 19.3 | 29.0 | 0.00 | 0.00 | 0.00 | 100 | 894.9 |
| 20260506152415 | 16 | 226 | 20.9 | 35.4 | 0.00 | 0.00 | 0.00 | 100 | 894.9 |
| 20260506152315 | 16 | 226 | 22.5 | 35.4 | 0.00 | 0.00 | 0.00 | 100 | 894.8 |
| 20260506152214 | 15 | 221 | 25.7 | 38.6 | 0.00 | 0.00 | 0.00 | 100 | 894.8 |
| 20260506152014 | 15 | 229 | 27.4 | 38.6 | 0.00 | 0.00 | 0.00 | 100 | 894.3 |
| 20260506151813 | 15 | 219 | 24.1 | 35.4 | 0.00 | 0.00 | 0.00 | 100 | 894.3 |
| 20260506151612 | 16 | 202 | 20.9 | 33.8 | 0.00 | 0.00 | 0.00 | 100 | 894.4 |
| 20260506151411 | 15 | 208 | 20.9 | 35.4 | 0.00 | 0.00 | 0.00 | 100 | 894.3 |
| 20260506151209 | 16 | 225 | 22.5 | 35.4 | 0.00 | 0.00 | 0.00 | 100 | 894.5 |
| 20260506151009 | 16 | 228 | 22.5 | 35.4 | 0.00 | 0.00 | 0.00 | 100 | 894.4 |
| 20260506150808 | 16 | 230 | 20.9 | 33.8 | 0.00 | 0.00 | 0.00 | 100 | 894.6 |
| 20260506150605 | 16 | 233 | 22.5 | 32.2 | 0.00 | 0.00 | 0.00 | 100 | 894.6 |
| 20260506150436 | 16 | 233 | 22.5 | 32.2 | 0.00 | 0.00 | 0.00 | 100 | 894.5 |
| 20260506150405 | 16 | 233 | 22.5 | 32.2 | 0.00 | 0.00 | 0.00 | 100 | 894.5 |
| 20260506150305 | 16 | 233 | 22.5 | 32.2 | 0.00 | 0.00 | 0.00 | 100 | 894.6 |
| 20260506150205 | 16 | 212 | 20.9 | 33.8 | 0.00 | 0.00 | 0.00 | 100 | 894.8 |
| 20260506150004 | 16 | 203 | 22.5 | 38.6 | 0.00 | 0.00 | 0.00 | 100 | 894.7 |
| 20260506145802 | 16 | 205 | 22.5 | 49.9 | 0.00 | 0.00 | 0.00 | 100 | 894.7 |
| 20260506145601 | 16 | 220 | 24.1 | 49.9 | 0.00 | 0.00 | 0.00 | 100 | 894.6 |
| 20260506145400 | 16 | 226 | 25.7 | 41.8 | 0.00 | 0.00 | 0.00 | 100 | 894.3 |
| 20260506145300 | 16 | 216 | 25.7 | 41.8 | 0.00 | 0.00 | 0.00 | 100 | 894.4 |
| 20260506145159 | 16 | 215 | 25.7 | 41.8 | 0.00 | 0.00 | 0.00 | 100 | 894.4 |
| 20260506144958 | 16 | 217 | 25.7 | 43.5 | 0.00 | 0.00 | 0.00 | 100 | 894.4 |
| 20260506144757 | 16 | 220 | 25.7 | 43.5 | 0.00 | 0.00 | 0.00 | 100 | 894.6 |
| 20260506144556 | 16 | 220 | 25.7 | 40.2 | 0.00 | 0.00 | 0.00 | 100 | 894.5 |
| 20260506144355 | 16 | 230 | 27.4 | 49.9 | 0.00 | 0.00 | 0.00 | 100 | 894.5 |
| 20260506144255 | 16 | 231 | 29.0 | 49.9 | 0.00 | 0.00 | 0.00 | 100 | 894.4 |
| 20260506144155 | 16 | 231 | 29.0 | 49.9 | 0.00 | 0.00 | 0.00 | 100 | 894.3 |
| 20260506143953 | 16 | 210 | 29.0 | 45.1 | 0.00 | 0.00 | 0.00 | 100 | 894.5 |
| 20260506143757 | 16 | 201 | 27.4 | 45.1 | 0.00 | 0.00 | 0.00 | 100 | 894.5 |
| 20260506143753 | 16 | 201 | 27.4 | 45.1 | 0.00 | 0.00 | 0.00 | 100 | 894.2 |
| 20260506143553 | 16 | 210 | 25.7 | 41.8 | 0.00 | 0.00 | 0.00 | 100 | 894.3 |
| 20260506143352 | 16 | 223 | 25.7 | 41.8 | 0.00 | 0.00 | 0.00 | 100 | 894.5 |
| 20260506143252 | 16 | 235 | 25.7 | 41.8 | 0.00 | 0.00 | 0.00 | 100 | 894.4 |
| 20260506143151 | 16 | 238 | 24.1 | 38.6 | 0.00 | 0.00 | 0.00 | 100 | 894.6 |
| 20260506142950 | 16 | 230 | 24.1 | 49.9 | 0.00 | 0.00 | 0.00 | 100 | 894.5 |
| 20260506142750 | 16 | 230 | 27.4 | 53.1 | 0.00 | 0.00 | 0.00 | 100 | 894.3 |
| 20260506142549 | 16 | 238 | 25.7 | 53.1 | 0.00 | 0.00 | 0.00 | 100 | 894.3 |
| 20260506142347 | 16 | 240 | 22.5 | 41.8 | 0.00 | 0.00 | 0.00 | 100 | 894.8 |
| 20260506142247 | 16 | 238 | 22.5 | 43.5 | 0.00 | 0.00 | 0.00 | 100 | 894.7 |
| 20260506142146 | 16 | 242 | 22.5 | 43.5 | 0.00 | 0.00 | 0.00 | 100 | 894.8 |
| 20260506141945 | 16 | 239 | 22.5 | 43.5 | 0.00 | 0.00 | 0.00 | 100 | 894.7 |
| 20260506141744 | 16 | 242 | 22.5 | 35.4 | 0.00 | 0.00 | 0.00 | 100 | 894.4 |
| 20260506141543 | 16 | 247 | 22.5 | 33.8 | 0.00 | 0.00 | 0.00 | 100 | 894.3 |
| 20260506141342 | 16 | 248 | 22.5 | 37.0 | 0.00 | 0.00 | 0.00 | 100 | 894.4 |
| 20260506141243 | 16 | 248 | 20.9 | 37.0 | 0.00 | 0.00 | 0.00 | 100 | 894.6 |
| 20260506141142 | 16 | 243 | 24.1 | 40.2 | 0.00 | 0.00 | 0.00 | 100 | 894.6 |
| 20260506140941 | 16 | 240 | 25.7 | 40.2 | 0.00 | 0.00 | 0.00 | 100 | 895.5 |
| 20260506140739 | 16 | 243 | 29.0 | 45.1 | 0.00 | 0.00 | 0.00 | 100 | 894.7 |
| 20260506140535 | 16 | 248 | 30.6 | 51.5 | 0.00 | 0.00 | 0.00 | 100 | 894.0 |
| 20260506140333 | 16 | 244 | 29.0 | 51.5 | 0.00 | 0.00 | 0.00 | 100 | 893.6 |
| 20260506140234 | 16 | 241 | 24.1 | 38.6 | 0.00 | 0.00 | 0.00 | 100 | 893.8 |
| 20260506140133 | 16 | 235 | 20.9 | 38.6 | 0.00 | 0.00 | 0.00 | 100 | 893.8 |
| 20260506135931 | 16 | 222 | 17.7 | 35.4 | 0.00 | 0.00 | 0.00 | 100 | 894.2 |
| 20260506135731 | 16 | 226 | 20.9 | 40.2 | 0.00 | 0.00 | 0.00 | 100 | 894.7 |
| 20260506135529 | 16 | 231 | 25.7 | 46.7 | 0.00 | 0.00 | 0.00 | 100 | 894.9 |
| 20260506135328 | 16 | 237 | 29.0 | 46.7 | 0.00 | 0.00 | 0.00 | 100 | 894.1 |
| 20260506135228 | 17 | 237 | 25.7 | 43.5 | 0.00 | 0.00 | 0.00 | 100 | 893.5 |
| 20260506135125 | 17 | 234 | 24.1 | 43.5 | 0.00 | 0.00 | 0.00 | 100 | 893.8 |
| 20260506134922 | 17 | 239 | 25.7 | 48.3 | 0.00 | 0.00 | 0.00 | 100 | 893.8 |
| 20260506134720 | 17 | 241 | 29.0 | 45.1 | 0.00 | 0.00 | 0.00 | 100 | 893.6 |
| 20260506134519 | 17 | 243 | 29.0 | 48.3 | 0.00 | 0.00 | 0.00 | 100 | 894.4 |
| 20260506134318 | 17 | 247 | 25.7 | 48.3 | 0.00 | 0.00 | 0.00 | 100 | 894.0 |
| 20260506134219 | 17 | 247 | 24.1 | 48.3 | 0.00 | 0.00 | 0.00 | 100 | 894.7 |
| 20260506134117 | 18 | 241 | 25.7 | 43.5 | 0.00 | 0.00 | 0.00 | 100 | 895.1 |
| 20260506133917 | 17 | 241 | 25.7 | 43.5 | 0.00 | 0.00 | 0.00 | 100 | 894.9 |
| 20260506133716 | 17 | 247 | 22.5 | 43.5 | 0.00 | 0.00 | 0.00 | 100 | 894.6 |
| 20260506133515 | 17 | 251 | 22.5 | 41.8 | 0.00 | 0.00 | 0.00 | 100 | 894.8 |
| 20260506133314 | 17 | 246 | 27.4 | 45.1 | 0.00 | 0.00 | 0.00 | 100 | 894.4 |
| 20260506133214 | 16 | 247 | 25.7 | 45.1 | 0.00 | 0.00 | 0.00 | 100 | 894.4 |
| 20260506133112 | 17 | 248 | 24.1 | 45.1 | 0.00 | 0.00 | 0.00 | 100 | 894.5 |
| 20260506132912 | 17 | 248 | 24.1 | 40.2 | 0.00 | 0.00 | 0.00 | 100 | 894.9 |
| 20260506132710 | 17 | 242 | 30.6 | 45.1 | 0.00 | 0.00 | 0.00 | 100 | 894.2 |
| 20260506132509 | 17 | 248 | 30.6 | 45.1 | 0.00 | 0.00 | 0.00 | 100 | 894.1 |
| 20260506132309 | 17 | 249 | 27.4 | 43.5 | 0.00 | 0.00 | 0.00 | 100 | 894.1 |
| 20260506132208 | 17 | 249 | 22.5 | 43.5 | 0.00 | 0.00 | 0.00 | 100 | 894.3 |
| 20260506132107 | 17 | 243 | 20.9 | 43.5 | 0.00 | 0.00 | 0.00 | 100 | 894.9 |
| 20260506131906 | 17 | 241 | 20.9 | 41.8 | 0.00 | 0.00 | 0.00 | 100 | 894.8 |
| 20260506131705 | 17 | 243 | 22.5 | 41.8 | 0.00 | 0.00 | 0.00 | 100 | 894.2 |
| 20260506131508 | 17 | 240 | 19.3 | 40.2 | 0.00 | 0.00 | 0.00 | 100 | 894.6 |
| 20260506131324 | 17 | 240 | 17.7 | 40.2 | 0.00 | 0.00 | 0.00 | 100 | 894.5 |
| 20260506131203 | 17 | 240 | 17.7 | 40.2 | 0.00 | 0.00 | 0.00 | 100 | 895.4 |
| 20260506131106 | 17 | 233 | 17.7 | 35.4 | 0.00 | 0.00 | 0.00 | 100 | 895.1 |
| 20260506130915 | 17 | 242 | 19.3 | 35.4 | 0.00 | 0.00 | 0.00 | 100 | 895.2 |
| 20260506130701 | 17 | 242 | 20.9 | 35.4 | 0.00 | 0.00 | 0.00 | 100 | 894.6 |
| 20260506130503 | 17 | 232 | 25.7 | 41.8 | 0.00 | 0.00 | 0.00 | 100 | 894.4 |
| 20260506130302 | 17 | 210 | 22.5 | 37.0 | 0.00 | 0.00 | 0.00 | 100 | 894.3 |
| 20260506130158 | 17 | 221 | 20.9 | 32.2 | 0.00 | 0.00 | 0.00 | 100 | 894.5 |
| 20260506125645 | 17 | 247 | 22.5 | 41.8 | 0.00 | 0.00 | 0.00 | 100 | 894.9 |
| 20260506125143 | 17 | 220 | 27.4 | 48.3 | 0.00 | 0.00 | 0.00 | 100 | 894.4 |
| 20260506124640 | 17 | 237 | 24.1 | 46.7 | 0.00 | 0.00 | 0.00 | 100 | 895.1 |
| 20260506124138 | 17 | 199 | 24.1 | 54.7 | 0.00 | 0.00 | 0.00 | 100 | 895.6 |
| 20260506123636 | 16 | 226 | 25.7 | 41.8 | 0.00 | 0.00 | 0.00 | 100 | 895.2 |
| 20260506123133 | 16 | 228 | 25.7 | 51.5 | 0.00 | 0.00 | 0.00 | 100 | 894.9 |
| 20260506122632 | 16 | 231 | 24.1 | 35.4 | 0.00 | 0.00 | 0.00 | 100 | 895.2 |
| 20260506122232 | 16 | 241 | 24.1 | 43.5 | 0.00 | 0.00 | 0.00 | 100 | 895.1 |
| 20260506122127 | 16 | 243 | 24.1 | 43.5 | 0.00 | 0.00 | 0.00 | 100 | 894.9 |
| 20260506122014 | 16 | 246 | 25.7 | 48.3 | 0.00 | 0.00 | 0.00 | 100 | 894.6 |
| 20260506121812 | 16 | 246 | 29.0 | 46.7 | 0.00 | 0.00 | 0.00 | 100 | 894.5 |
| 20260506121611 | 16 | 248 | 24.1 | 46.7 | 0.00 | 0.00 | 0.00 | 100 | 894.7 |
| 20260506121511 | 16 | 246 | 24.1 | 46.7 | 0.00 | 0.00 | 0.00 | 100 | 894.7 |
| 20260506121408 | 16 | 241 | 20.9 | 46.7 | 0.00 | 0.00 | 0.00 | 100 | 894.6 |
| 20260506121205 | 16 | 237 | 29.0 | 45.1 | 0.00 | 0.00 | 0.00 | 100 | 894.2 |
| 20260506121001 | 16 | 244 | 29.0 | 45.1 | 0.00 | 0.00 | 0.00 | 100 | 894.1 |
| 20260506120757 | 16 | 250 | 25.7 | 41.8 | 0.00 | 0.00 | 0.00 | 100 | 894.8 |
| 20260506120556 | 16 | 248 | 25.7 | 41.8 | 0.00 | 0.00 | 0.00 | 100 | 894.5 |
| 20260506120455 | 16 | 247 | 25.7 | 41.8 | 0.00 | 0.00 | 0.00 | 100 | 894.6 |
| 20260506120354 | 16 | 243 | 25.7 | 38.6 | 0.00 | 0.00 | 0.00 | 100 | 894.6 |
| 20260506120153 | 16 | 242 | 24.1 | 38.6 | 0.00 | 0.00 | 0.00 | 100 | 894.7 |
| 20260506115952 | 16 | 239 | 27.4 | 40.2 | 0.00 | 0.00 | 0.00 | 100 | 894.8 |
| 20260506115751 | 16 | 239 | 27.4 | 41.8 | 0.00 | 0.00 | 0.00 | 100 | 894.4 |
| 20260506115550 | 16 | 247 | 19.3 | 41.8 | 0.00 | 0.00 | 0.00 | 100 | 894.8 |
| 20260506115450 | 16 | 252 | 19.3 | 35.4 | 0.00 | 0.00 | 0.00 | 100 | 894.6 |
| 20260506115348 | 16 | 248 | 19.3 | 35.4 | 0.00 | 0.00 | 0.00 | 100 | 894.8 |
| 20260506115148 | 16 | 223 | 17.7 | 30.6 | 0.00 | 0.00 | 0.00 | 100 | 894.8 |
| 20260506114945 | 16 | 204 | 12.9 | 29.0 | 0.00 | 0.00 | 0.00 | 100 | 895.1 |
| 20260506114742 | 16 | 216 | 11.3 | 22.5 | 0.00 | 0.00 | 0.00 | 100 | 895.6 |
| 20260506114541 | 16 | 235 | 19.3 | 32.2 | 0.00 | 0.00 | 0.00 | 100 | 895.3 |
| 20260506114442 | 16 | 235 | 19.3 | 32.2 | 0.00 | 0.00 | 0.00 | 100 | 894.9 |
| 20260506114340 | 16 | 223 | 19.3 | 33.8 | 0.00 | 0.00 | 0.00 | 100 | 894.9 |
| 20260506114139 | 16 | 212 | 19.3 | 33.8 | 0.00 | 0.00 | 0.00 | 100 | 894.8 |
| 20260506113938 | 16 | 222 | 22.5 | 48.3 | 0.00 | 0.00 | 0.00 | 100 | 895.1 |
| 20260506113738 | 17 | 234 | 25.7 | 48.3 | 0.00 | 0.00 | 0.00 | 100 | 894.8 |
| 20260506113537 | 16 | 239 | 27.4 | 43.5 | 0.00 | 0.00 | 0.00 | 100 | 894.7 |
| 20260506113438 | 16 | 241 | 22.5 | 43.5 | 0.00 | 0.00 | 0.00 | 100 | 894.7 |
| 20260506113337 | 16 | 244 | 19.3 | 43.5 | 0.00 | 0.00 | 0.00 | 100 | 895.2 |
| 20260506113135 | 16 | 255 | 14.5 | 38.6 | 0.00 | 0.00 | 0.00 | 100 | 895.9 |
| 20260506112934 | 16 | 238 | 19.3 | 38.6 | 0.00 | 0.00 | 0.00 | 100 | 895.5 |
| 20260506112726 | 16 | 220 | 22.5 | 48.3 | 0.00 | 0.00 | 0.00 | 100 | 894.9 |
| 20260506112523 | 16 | 231 | 22.5 | 48.3 | 0.00 | 0.00 | 0.00 | 100 | 895.1 |
| 20260506112423 | 16 | 240 | 24.1 | 48.3 | 0.00 | 0.00 | 0.00 | 100 | 895.1 |
| 20260506112322 | 15 | 241 | 25.7 | 41.8 | 0.00 | 0.00 | 0.00 | 100 | 895.4 |
| 20260506112123 | 16 | 243 | 25.7 | 41.8 | 0.00 | 0.00 | 0.00 | 100 | 895.1 |
| 20260506111921 | 15 | 242 | 25.7 | 41.8 | 0.00 | 0.00 | 0.00 | 100 | 895.2 |
| 20260506111721 | 16 | 240 | 22.5 | 41.8 | 0.00 | 0.00 | 0.00 | 100 | 894.7 |
| 20260506111520 | 16 | 237 | 27.4 | 45.1 | 0.00 | 0.00 | 0.00 | 100 | 894.7 |
| 20260506111418 | 16 | 233 | 30.6 | 45.1 | 0.00 | 0.00 | 0.00 | 100 | 895.1 |
| 20260506111242 | 16 | 236 | 29.0 | 46.7 | 0.00 | 0.00 | 0.00 | 100 | 894.6 |
| 20260506110739 | 16 | 207 | 20.9 | 38.6 | 0.00 | 0.00 | 0.00 | 100 | 895.1 |
| 20260506110506 | 16 | 218 | 22.5 | 37.0 | 0.00 | 0.00 | 0.00 | 100 | 895.4 |
| 20260506110300 | 16 | 217 | 22.5 | 37.0 | 0.00 | 0.00 | 0.00 | 100 | 894.9 |
| 20260506105901 | 15 | 210 | 20.9 | 40.2 | 0.00 | 0.00 | 0.00 | 100 | 895.3 |
| 20260506105759 | 15 | 211 | 20.9 | 40.2 | 0.00 | 0.00 | 0.00 | 100 | 895.3 |
| 20260506105701 | 15 | 208 | 22.5 | 40.2 | 0.00 | 0.00 | 0.00 | 100 | 895.1 |
| 20260506105517 | 15 | 205 | 20.9 | 35.4 | 0.00 | 0.00 | 0.00 | 100 | 894.6 |
| 20260506105258 | 15 | 209 | 19.3 | 37.0 | 0.00 | 0.00 | 0.00 | 100 | 894.5 |
| 20260506105100 | 16 | 232 | 19.3 | 37.0 | 0.00 | 0.00 | 0.00 | 100 | 895.4 |
| 20260506104901 | 16 | 239 | 19.3 | 30.6 | 0.00 | 0.00 | 0.00 | 100 | 895.5 |
| 20260506104756 | 16 | 235 | 19.3 | 32.2 | 0.00 | 0.00 | 0.00 | 100 | 895.2 |
| 20260506104659 | 16 | 230 | 19.3 | 32.2 | 0.00 | 0.00 | 0.00 | 100 | 894.9 |
| 20260506104456 | 16 | 222 | 19.3 | 32.2 | 0.00 | 0.00 | 0.00 | 100 | 895.2 |
| 20260506104253 | 15 | 227 | 22.5 | 41.8 | 0.00 | 0.00 | 0.00 | 100 | 895.0 |
| 20260506104055 | 15 | 225 | 25.7 | 45.1 | 0.00 | 0.00 | 0.00 | 100 | 894.9 |
| 20260506103855 | 15 | 225 | 25.7 | 45.1 | 0.00 | 0.00 | 0.00 | 100 | 895.0 |
| 20260506103752 | 16 | 224 | 25.7 | 45.1 | 0.00 | 0.00 | 0.00 | 100 | 894.9 |
| 20260506103656 | 15 | 225 | 25.7 | 45.1 | 0.00 | 0.00 | 0.00 | 100 | 895.2 |
| 20260506103529 | 15 | 213 | 24.1 | 38.6 | 0.00 | 0.00 | 0.00 | 100 | 895.1 |
| 20260506103251 | 16 | 203 | 24.1 | 40.2 | 0.00 | 0.00 | 0.00 | 100 | 895.3 |
| 20260506103053 | 15 | 200 | 22.5 | 40.2 | 0.00 | 0.00 | 0.00 | 100 | 895.4 |
| 20260506102850 | 15 | 202 | 24.1 | 38.6 | 0.00 | 0.00 | 0.00 | 100 | 895.1 |
| 20260506102747 | 15 | 205 | 25.7 | 38.6 | 0.00 | 0.00 | 0.00 | 100 | 895.1 |
| 20260506102648 | 15 | 206 | 24.1 | 37.0 | 0.00 | 0.00 | 0.00 | 100 | 895.1 |
| 20260506102447 | 15 | 209 | 24.1 | 35.4 | 0.00 | 0.00 | 0.00 | 100 | 895.3 |
| 20260506102245 | 15 | 214 | 25.7 | 38.6 | 0.00 | 0.00 | 0.00 | 100 | 895.3 |
| 20260506102044 | 15 | 216 | 27.4 | 46.7 | 0.00 | 0.00 | 0.00 | 100 | 895.3 |
| 20260506101843 | 15 | 219 | 29.0 | 46.7 | 0.00 | 0.00 | 0.00 | 100 | 895.2 |
| 20260506101741 | 15 | 223 | 29.0 | 46.7 | 0.00 | 0.00 | 0.00 | 100 | 895.0 |
| 20260506101643 | 15 | 226 | 29.0 | 45.1 | 0.00 | 0.00 | 0.00 | 100 | 894.9 |
| 20260506101441 | 15 | 228 | 29.0 | 45.1 | 0.00 | 0.00 | 0.00 | 100 | 894.9 |
| 20260506101238 | 15 | 226 | 29.0 | 45.1 | 0.00 | 0.00 | 0.00 | 100 | 895.0 |
| 20260506100935 | 15 | 223 | 27.4 | 45.1 | 0.00 | 0.00 | 0.00 | 100 | 895.3 |
| 20260506100752 | 15 | 219 | 30.6 | 51.5 | 0.00 | 0.00 | 0.00 | 100 | 895.3 |
| 20260506100731 | 14 | 219 | 30.6 | 51.5 | 0.00 | 0.00 | 0.00 | 100 | 895.0 |
| 20260506100603 | 14 | 222 | 27.4 | 51.5 | 0.00 | 0.00 | 0.00 | 100 | 895.1 |
| 20260506100530 | 14 | 222 | 27.4 | 51.5 | 0.00 | 0.00 | 0.00 | 100 | 895.1 |
| 20260506100329 | 15 | 239 | 22.5 | 38.6 | 0.00 | 0.00 | 0.00 | 100 | 895.9 |
| 20260506100230 | 15 | 239 | 22.5 | 35.4 | 0.00 | 0.00 | 0.00 | 100 | 896.0 |
| 20260506100128 | 15 | 238 | 24.1 | 37.0 | 0.00 | 0.00 | 0.00 | 100 | 895.9 |
| 20260506095927 | 14 | 231 | 27.4 | 40.2 | 0.00 | 0.00 | 0.00 | 100 | 895.7 |
| 20260506095726 | 14 | 228 | 30.6 | 51.5 | 0.00 | 0.00 | 0.00 | 100 | 895.4 |
| 20260506095526 | 14 | 227 | 30.6 | 51.5 | 0.00 | 0.00 | 0.00 | 100 | 895.2 |
| 20260506095325 | 14 | 231 | 29.0 | 45.1 | 0.00 | 0.00 | 0.00 | 100 | 894.6 |
| 20260506095225 | 14 | 231 | 27.4 | 43.5 | 0.00 | 0.00 | 0.00 | 100 | 894.8 |
| 20260506095124 | 14 | 234 | 27.4 | 43.5 | 0.00 | 0.00 | 0.00 | 100 | 894.8 |
| 20260506094922 | 14 | 232 | 25.7 | 45.1 | 0.00 | 0.00 | 0.00 | 100 | 894.7 |
| 20260506094721 | 14 | 224 | 25.7 | 46.7 | 0.00 | 0.00 | 0.00 | 100 | 894.5 |
| 20260506094521 | 14 | 224 | 25.7 | 46.7 | 0.00 | 0.00 | 0.00 | 100 | 894.3 |
| 20260506094320 | 14 | 216 | 25.7 | 40.2 | 0.00 | 0.00 | 0.00 | 100 | 894.2 |
| 20260506094218 | 14 | 216 | 25.7 | 38.6 | 0.00 | 0.00 | 0.00 | 100 | 894.2 |
| 20260506093900 | 14 | 219 | 25.7 | 41.8 | 0.00 | 0.00 | 0.00 | 100 | 894.8 |
| 20260506093654 | 15 | 212 | 24.1 | 40.2 | 0.00 | 0.00 | 0.00 | 100 | 894.9 |
| 20260506093450 | 15 | 232 | 24.1 | 46.7 | 0.00 | 0.00 | 0.00 | 100 | 895.0 |
| 20260506093247 | 14 | 232 | 24.1 | 46.7 | 0.00 | 0.00 | 0.00 | 100 | 894.7 |
| 20260506093145 | 14 | 213 | 22.5 | 41.8 | 0.00 | 0.00 | 0.00 | 100 | 895.1 |
| 20260506093041 | 15 | 213 | 22.5 | 37.0 | 0.00 | 0.00 | 0.00 | 100 | 895.1 |
| 20260506092840 | 14 | 213 | 22.5 | 40.2 | 0.00 | 0.00 | 0.00 | 100 | 895.0 |
| 20260506092639 | 14 | 222 | 22.5 | 40.2 | 0.00 | 0.00 | 0.00 | 100 | 895.0 |
| 20260506092438 | 14 | 226 | 20.9 | 40.2 | 0.00 | 0.00 | 0.00 | 100 | 895.1 |
| 20260506092238 | 14 | 243 | 20.9 | 33.8 | 0.00 | 0.00 | 0.00 | 100 | 895.4 |
| 20260506092138 | 13 | 243 | 22.5 | 35.4 | 0.00 | 0.00 | 0.00 | 100 | 895.2 |
| 20260506092036 | 13 | 235 | 24.1 | 37.0 | 0.00 | 0.00 | 0.00 | 100 | 894.9 |
| 20260506091835 | 13 | 225 | 22.5 | 37.0 | 0.00 | 0.00 | 0.00 | 100 | 895.1 |
| 20260506091635 | 13 | 221 | 20.9 | 35.4 | 0.00 | 0.00 | 0.00 | 100 | 895.4 |
| 20260506091433 | 13 | 205 | 22.5 | 37.0 | 0.00 | 0.00 | 0.00 | 100 | 895.2 |
| 20260506091232 | 13 | 205 | 20.9 | 37.0 | 0.00 | 0.00 | 0.00 | 100 | 894.9 |
| 20260506091131 | 13 | 210 | 20.9 | 35.4 | 0.00 | 0.00 | 0.00 | 100 | 894.9 |
| 20260506091019 | 13 | 216 | 22.5 | 32.2 | 0.00 | 0.00 | 0.00 | 100 | 895.0 |
| 20260506090819 | 13 | 222 | 24.1 | 32.2 | 0.00 | 0.00 | 0.00 | 100 | 894.7 |
| 20260506090618 | 13 | 218 | 25.7 | 40.2 | 0.00 | 0.00 | 0.00 | 100 | 894.6 |
| 20260506090416 | 13 | 231 | 27.4 | 46.7 | 0.00 | 0.00 | 0.00 | 100 | 894.3 |
| 20260506090215 | 13 | 236 | 29.0 | 46.7 | 0.00 | 0.00 | 0.00 | 100 | 894.2 |
| 20260506090115 | 13 | 236 | 29.0 | 46.7 | 0.00 | 0.00 | 0.00 | 100 | 894.7 |
| 20260506090050 | 13 | 234 | 29.0 | 48.3 | 0.00 | 0.00 | 0.00 | 100 | 894.7 |
| 20260506090014 | 13 | 234 | 29.0 | 48.3 | 0.00 | 0.00 | 0.00 | 100 | 894.7 |
| 20260506085814 | 13 | 231 | 27.4 | 48.3 | 0.00 | 0.00 | 0.00 | 100 | 894.4 |
| 20260506085613 | 13 | 218 | 27.4 | 41.8 | 0.00 | 0.00 | 0.00 | 100 | 894.6 |
| 20260506085410 | 13 | 224 | 29.0 | 46.7 | 0.00 | 0.00 | 0.00 | 100 | 894.2 |
| 20260506085206 | 13 | 237 | 25.7 | 46.7 | 0.00 | 0.00 | 0.00 | 100 | 894.4 |
| 20260506085106 | 13 | 238 | 24.1 | 35.4 | 0.00 | 0.00 | 0.00 | 100 | 894.9 |
| 20260506085005 | 13 | 239 | 25.7 | 43.5 | 0.00 | 0.00 | 0.00 | 100 | 894.7 |
| 20260506084804 | 13 | 237 | 27.4 | 43.5 | 0.00 | 0.00 | 0.00 | 100 | 894.5 |
| 20260506084607 | 13 | 226 | 25.7 | 43.5 | 0.00 | 0.00 | 0.00 | 100 | 894.5 |
| 20260506084602 | 13 | 226 | 25.7 | 43.5 | 0.00 | 0.00 | 0.00 | 100 | 894.6 |
| 20260506084401 | 13 | 220 | 24.1 | 37.0 | 0.00 | 0.00 | 0.00 | 100 | 894.8 |
| 20260506084200 | 13 | 228 | 25.7 | 37.0 | 0.00 | 0.00 | 0.00 | 100 | 894.6 |
| 20260506084101 | 13 | 233 | 25.7 | 43.5 | 0.00 | 0.00 | 0.00 | 100 | 894.6 |
| 20260506084000 | 13 | 231 | 29.0 | 45.1 | 0.00 | 0.00 | 0.00 | 100 | 894.7 |
| 20260506083759 | 13 | 227 | 30.6 | 45.1 | 0.00 | 0.00 | 0.00 | 100 | 894.2 |
| 20260506083558 | 13 | 229 | 29.0 | 41.8 | 0.00 | 0.00 | 0.00 | 100 | 894.4 |
| 20260506083357 | 13 | 234 | 29.0 | 41.8 | 0.00 | 0.00 | 0.00 | 100 | 894.1 |
| 20260506083155 | 12 | 233 | 29.0 | 41.8 | 0.00 | 0.00 | 0.00 | 100 | 893.7 |
| 20260506083056 | 12 | 226 | 29.0 | 45.1 | 0.00 | 0.00 | 0.00 | 100 | 893.7 |
| 20260506082955 | 13 | 227 | 30.6 | 45.1 | 0.00 | 0.00 | 0.00 | 100 | 893.5 |
| 20260506082755 | 12 | 225 | 32.2 | 51.5 | 0.00 | 0.00 | 0.00 | 100 | 893.7 |
| 20260506082554 | 12 | 226 | 30.6 | 51.5 | 0.00 | 0.00 | 0.00 | 100 | 897.1 |
| 20260506082353 | 12 | 226 | 29.0 | 46.7 | 0.00 | 0.00 | 0.00 | 100 | 893.8 |
| 20260506082153 | 12 | 224 | 29.0 | 46.7 | 0.00 | 0.00 | 0.00 | 100 | 893.6 |
| 20260506082053 | 12 | 221 | 27.4 | 46.7 | 0.00 | 0.00 | 0.00 | 100 | 893.4 |
| 20260506081851 | 12 | 220 | 27.4 | 41.8 | 0.00 | 0.00 | 0.00 | 100 | 893.3 |
| 20260506081538 | 12 | 224 | 29.0 | 48.3 | 0.00 | 0.00 | 0.00 | 100 | 895.5 |
| 20260506081337 | 12 | 216 | 29.0 | 54.7 | 0.00 | 0.00 | 0.00 | 100 | 893.2 |
| 20260506081135 | 12 | 218 | 27.4 | 54.7 | 0.00 | 0.00 | 0.00 | 100 | 893.3 |
| 20260506081034 | 12 | 219 | 29.0 | 54.7 | 0.00 | 0.00 | 0.00 | 100 | 893.3 |
| 20260506080833 | 12 | 222 | 27.4 | 41.8 | 0.00 | 0.00 | 0.00 | 100 | 893.6 |
| 20260506080603 | 12 | 226 | 25.7 | 41.8 | 0.00 | 0.00 | 0.00 | 100 | 899.5 |
| 20260506080501 | 12 | 225 | 25.7 | 40.2 | 0.00 | 0.00 | 0.00 | 100 | 894.0 |
| 20260506080248 | 12 | 225 | 29.0 | 46.7 | 0.00 | 0.00 | 0.00 | 100 | 893.9 |
| 20260506080147 | 12 | 225 | 29.0 | 46.7 | 0.00 | 0.00 | 0.00 | 100 | 893.5 |
| 20260506073323 | 11 | 226 | 29.0 | 48.3 | 0.00 | 0.00 | 0.00 | 100 | 891.8 |
| 20260506073120 | 11 | 231 | 30.6 | 45.1 | 0.00 | 0.00 | 0.00 | 100 | 892.2 |
| 20260506073020 | 11 | 231 | 30.6 | 45.1 | 0.00 | 0.00 | 0.00 | 100 | 896.7 |
| 20260506072918 | 11 | 230 | 29.0 | 45.1 | 0.00 | 0.00 | 0.00 | 100 | 896.7 |
| 20260506072717 | 11 | 230 | 29.0 | 54.7 | 0.00 | 0.00 | 0.00 | 100 | 891.9 |
| 20260506072516 | 11 | 225 | 32.2 | 54.7 | 0.00 | 0.00 | 0.00 | 100 | 892.2 |
| 20260506072315 | 11 | 225 | 33.8 | 53.1 | 0.00 | 0.00 | 0.00 | 100 | 891.5 |
| 20260506072114 | 11 | 225 | 33.8 | 53.1 | 0.00 | 0.00 | 0.00 | 100 | 893.2 |
| 20260506072015 | 11 | 220 | 32.2 | 53.1 | 0.00 | 0.00 | 0.00 | 100 | 896.4 |
| 20260506071914 | 11 | 218 | 32.2 | 48.3 | 0.00 | 0.00 | 0.00 | 100 | 892.4 |
| 20260506071713 | 11 | 223 | 32.2 | 48.3 | 0.00 | 0.00 | 0.00 | 100 | 891.3 |
| 20260506071522 | 11 | 212 | 35.4 | 51.5 | 0.00 | 0.00 | 0.00 | 100 | 891.7 |
| 20260506071512 | 11 | 212 | 35.4 | 51.5 | 0.00 | 0.00 | 0.00 | 100 | 894.6 |
| 20260506071311 | 11 | 209 | 35.4 | 51.5 | 0.00 | 0.00 | 0.00 | 100 | 900.0 |
| 20260506071110 | 11 | 215 | 33.8 | 51.5 | 0.00 | 0.00 | 0.00 | 100 | 892.1 |
| 20260506071010 | 11 | 223 | 33.8 | 49.9 | 0.00 | 0.00 | 0.00 | 100 | 895.9 |
| 20260506070909 | 11 | 224 | 33.8 | 49.9 | 0.00 | 0.00 | 0.00 | 100 | 894.2 |
| 20260506070708 | 11 | 227 | 33.8 | 49.9 | 0.00 | 0.00 | 0.00 | 100 | 892.0 |
| 20260506070508 | 10 | 223 | 33.8 | 48.3 | 0.00 | 0.00 | 0.00 | 100 | 896.1 |
| 20260506070317 | 11 | 211 | 33.8 | 57.9 | 0.00 | 0.00 | 0.00 | 100 | 890.6 |
| 20260506070307 | 10 | 211 | 33.8 | 57.9 | 0.00 | 0.00 | 0.00 | 100 | 892.6 |
| 20260506070106 | 10 | 214 | 33.8 | 57.9 | 0.00 | 0.00 | 0.00 | 100 | 898.3 |
| 20260506062417 | 9 | 223 | 29.0 | 48.3 | 0.00 | 0.00 | 0.00 | 100 | 895.1 |
| 20260506062215 | 9 | 229 | 32.2 | 48.3 | 0.00 | 0.00 | 0.00 | 100 | 891.1 |
| 20260506061933 | 9 | 231 | 35.4 | 49.9 | 0.00 | 0.00 | 0.00 | 100 | 891.5 |
| 20260506061706 | 9 | 227 | 35.4 | 59.5 | 0.00 | 0.00 | 0.00 | 100 | 897.4 |
| 20260506061608 | 9 | 225 | 35.4 | 59.5 | 0.00 | 0.00 | 0.00 | 100 | 897.4 |
| 20260506061407 | 9 | 222 | 35.4 | 59.5 | 0.00 | 0.00 | 0.00 | 100 | 892.7 |
| 20260506061204 | 9 | 221 | 35.4 | 54.7 | 0.00 | 0.00 | 0.00 | 100 | 890.5 |
| 20260506061004 | 8 | 223 | 37.0 | 54.7 | 0.00 | 0.00 | 0.00 | 100 | 894.3 |
| 20260506060804 | 8 | 220 | 37.0 | 54.7 | 0.00 | 0.00 | 0.00 | 100 | 894.3 |
| 20260506060701 | 8 | 220 | 37.0 | 54.7 | 0.00 | 0.00 | 0.00 | 100 | 891.8 |
| 20260506060147 | 8 | 223 | 37.0 | 53.1 | 0.00 | 0.00 | 0.00 | 100 | 890.3 |
| 20260506051125 | 8 | 213 | 45.1 | 69.2 | 0.00 | 0.00 | 0.00 | 100 | 891.0 |
| 20260506050624 | 8 | 214 | 43.5 | 67.6 | 0.00 | 0.00 | 0.00 | 100 | 895.0 |
| 20260506050123 | 8 | 219 | 48.3 | 77.2 | 0.00 | 0.00 | 0.00 | 100 | 891.6 |
| 20260506045119 | 8 | 221 | 46.7 | 80.5 | 0.00 | 0.00 | 0.00 | 100 | 890.4 |
| 20260506044616 | 8 | 221 | 46.7 | 77.2 | 0.00 | 0.00 | 0.00 | 100 | 887.9 |
| 20260506044522 | 8 | 221 | 48.3 | 78.9 | 0.00 | 0.00 | 0.00 | 100 | 887.9 |
| 20260506044115 | 8 | 220 | 45.1 | 78.9 | 0.00 | 0.00 | 0.00 | 100 | 889.4 |
| 20260506043613 | 8 | 222 | 40.2 | 67.6 | 0.00 | 0.00 | 0.00 | 100 | 895.3 |
| 20260506043316 | 8 | 220 | 43.5 | 78.9 | 0.00 | 0.00 | 0.00 | 100 | 894.8 |
| 20260506043110 | 8 | 220 | 41.8 | 78.9 | 0.00 | 0.00 | 0.00 | 100 | 891.0 |
| 20260506042607 | 8 | 218 | 43.5 | 70.8 | 0.00 | 0.00 | 0.00 | 100 | 894.7 |
| 20260506042105 | 8 | 216 | 43.5 | 77.2 | 0.00 | 0.00 | 0.00 | 100 | 892.2 |
| 20260506041603 | 8 | 216 | 41.8 | 69.2 | 0.00 | 0.00 | 0.00 | 100 | 893.3 |
| 20260506041101 | 8 | 217 | 46.7 | 74.0 | 0.00 | 0.00 | 0.00 | 100 | 889.3 |
| 20260506040601 | 8 | 217 | 40.2 | 74.0 | 0.00 | 0.00 | 0.00 | 100 | 891.6 |
| 20260506040059 | 8 | 215 | 40.2 | 66.0 | 0.00 | 0.00 | 0.00 | 100 | 891.4 |
| 20260506035556 | 8 | 213 | 43.5 | 66.0 | 0.00 | 0.00 | 0.00 | 100 | 893.9 |
| 20260506035054 | 8 | 212 | 41.8 | 64.4 | 0.00 | 0.00 | 0.00 | 100 | 893.4 |
| 20260506034657 | 8 | 216 | 45.1 | 80.5 | 0.00 | 0.00 | 0.00 | 100 | 888.6 |
| 20260506034551 | 8 | 220 | 45.1 | 80.5 | 0.00 | 0.00 | 0.00 | 100 | 892.2 |
| 20260506034036 | 8 | 214 | 38.6 | 64.4 | 0.00 | 0.00 | 0.00 | 100 | 892.0 |
| 20260506033535 | 8 | 222 | 46.7 | 69.2 | 0.00 | 0.00 | 0.00 | 100 | 894.1 |
| 20260506033242 | 8 | 217 | 45.1 | 72.4 | 0.00 | 0.00 | 0.00 | 100 | 891.2 |
| 20260506033033 | 8 | 217 | 43.5 | 72.4 | 0.00 | 0.00 | 0.00 | 100 | 893.8 |
| 20260506032531 | 8 | 213 | 38.6 | 64.4 | 0.00 | 0.00 | 0.00 | 100 | 892.3 |
| 20260506032026 | 8 | 210 | 38.6 | 77.2 | 0.00 | 0.00 | 0.00 | 100 | 888.1 |
| 20260506031524 | 8 | 214 | 40.2 | 70.8 | 0.00 | 0.00 | 0.00 | 100 | 893.1 |
| 20260506031023 | 9 | 215 | 46.7 | 67.6 | 0.00 | 0.00 | 0.00 | 100 | 893.2 |
| 20260506030521 | 9 | 212 | 38.6 | 69.2 | 0.00 | 0.00 | 0.00 | 100 | 889.1 |
| 20260506030020 | 9 | 217 | 38.6 | 72.4 | 0.00 | 0.00 | 0.00 | 100 | 890.2 |
| 20260506025016 | 9 | 216 | 37.0 | 67.6 | 0.00 | 0.00 | 0.00 | 100 | 889.4 |
| 20260506024513 | 9 | 216 | 38.6 | 70.8 | 0.00 | 0.00 | 0.00 | 100 | 891.1 |
| 20260506024011 | 9 | 216 | 38.6 | 62.8 | 0.00 | 0.00 | 0.00 | 100 | 896.8 |
| 20260506023510 | 9 | 216 | 37.0 | 62.8 | 0.00 | 0.00 | 0.00 | 100 | 895.8 |
| 20260506023210 | 10 | 217 | 40.2 | 66.0 | 0.00 | 0.00 | 0.00 | 100 | 889.0 |
| 20260506023008 | 9 | 217 | 35.4 | 66.0 | 0.00 | 0.00 | 0.00 | 100 | 890.2 |
| 20260506022506 | 9 | 213 | 35.4 | 66.0 | 0.00 | 0.00 | 0.00 | 100 | 892.0 |
| 20260506022004 | 10 | 216 | 32.2 | 61.2 | 0.00 | 0.00 | 0.00 | 100 | 890.4 |
| 20260506021502 | 10 | 209 | 35.4 | 66.0 | 0.00 | 0.00 | 0.00 | 100 | 890.4 |
| 20260506021000 | 10 | 218 | 35.4 | 59.5 | 0.00 | 0.00 | 0.00 | 100 | 893.3 |
| 20260506020456 | 10 | 214 | 38.6 | 66.0 | 0.00 | 0.00 | 0.00 | 100 | 892.1 |
| 20260506015955 | 10 | 220 | 38.6 | 59.5 | 0.00 | 0.00 | 0.00 | 100 | 888.7 |
| 20260506015451 | 10 | 218 | 38.6 | 62.8 | 0.00 | 0.00 | 0.00 | 100 | 892.3 |
| 20260506014950 | 10 | 221 | 45.1 | 70.8 | 0.00 | 0.00 | 0.00 | 100 | 888.2 |
| 20260506014449 | 10 | 215 | 40.2 | 72.4 | 0.00 | 0.00 | 0.00 | 100 | 896.6 |
| 20260506013947 | 10 | 217 | 43.5 | 70.8 | 0.00 | 0.00 | 0.00 | 100 | 888.0 |
| 20260506013442 | 10 | 215 | 41.8 | 67.6 | 0.00 | 0.00 | 0.00 | 100 | 889.6 |
| 20260506012940 | 10 | 222 | 38.6 | 67.6 | 0.00 | 0.00 | 0.00 | 100 | 891.9 |
| 20260506012438 | 10 | 221 | 37.0 | 64.4 | 0.00 | 0.00 | 0.00 | 100 | 890.6 |
| 20260506011935 | 10 | 221 | 33.8 | 62.8 | 0.00 | 0.00 | 0.00 | 100 | 894.5 |
| 20260506011433 | 10 | 209 | 33.8 | 54.7 | 0.00 | 0.00 | 0.00 | 100 | 890.6 |
| 20260506010932 | 10 | 215 | 30.6 | 48.3 | 0.00 | 0.00 | 0.00 | 100 | 896.2 |
| 20260506010419 | 10 | 209 | 27.4 | 45.1 | 0.00 | 0.00 | 0.00 | 100 | 897.5 |
| 20260506005916 | 10 | 204 | 27.4 | 53.1 | 0.00 | 0.00 | 0.00 | 100 | 890.0 |
| 20260506005516 | 10 | 221 | 32.2 | 59.5 | 0.00 | 0.00 | 0.00 | 100 | 889.3 |
| 20260506005413 | 10 | 221 | 32.2 | 59.5 | 0.00 | 0.00 | 0.00 | 100 | 891.9 |
| 20260506004913 | 11 | 212 | 29.0 | 54.7 | 0.00 | 0.00 | 0.00 | 100 | 889.8 |
| 20260506004410 | 11 | 217 | 37.0 | 56.3 | 0.00 | 0.00 | 0.00 | 100 | 888.8 |
| 20260506003908 | 11 | 217 | 37.0 | 64.4 | 0.00 | 0.00 | 0.00 | 100 | 895.7 |
| 20260506003406 | 11 | 219 | 37.0 | 67.6 | 0.00 | 0.00 | 0.00 | 100 | 894.0 |
| 20260506002903 | 11 | 217 | 38.6 | 64.4 | 0.00 | 0.00 | 0.00 | 100 | 889.2 |
| 20260506002401 | 11 | 218 | 41.8 | 78.9 | 0.00 | 0.00 | 0.00 | 100 | 898.1 |
| 20260506001859 | 11 | 216 | 37.0 | 85.3 | 0.00 | 0.00 | 0.00 | 100 | 896.5 |
| 20260506001359 | 11 | 215 | 41.8 | 69.2 | 0.00 | 0.00 | 0.00 | 100 | 889.0 |
| 20260506000857 | 11 | 215 | 41.8 | 78.9 | 0.00 | 0.00 | 0.00 | 100 | 897.3 |
| 20260506000355 | 11 | 217 | 35.4 | 77.2 | 0.00 | 0.00 | 0.00 | 100 | 895.3 |
| 20260505235854 | 11 | 218 | 37.0 | 64.4 | 0.00 | 0.00 | 0.00 | 100 | 889.7 |
| 20260505235353 | 11 | 215 | 40.2 | 69.2 | 0.00 | 0.00 | 0.00 | 100 | 889.7 |
| 20260505234851 | 12 | 217 | 41.8 | 70.8 | 0.00 | 0.00 | 0.00 | 100 | 892.7 |
| 20260505234349 | 12 | 215 | 41.8 | 77.2 | 0.00 | 0.00 | 0.00 | 100 | 890.0 |
| 20260505233848 | 12 | 210 | 38.6 | 77.2 | 0.00 | 0.00 | 0.00 | 100 | 890.9 |
| 20260505233345 | 12 | 213 | 37.0 | 69.2 | 0.00 | 0.00 | 0.00 | 100 | 890.8 |
| 20260505233246 | 12 | 213 | 37.0 | 72.4 | 0.00 | 0.00 | 0.00 | 100 | 890.8 |
| 20260505233040 | 12 | 214 | 41.8 | 80.5 | 0.00 | 0.00 | 0.00 | 100 | 889.1 |
| 20260505232838 | 12 | 214 | 38.6 | 80.5 | 0.00 | 0.00 | 0.00 | 100 | 891.1 |
| 20260505232637 | 12 | 212 | 38.6 | 66.0 | 0.00 | 0.00 | 0.00 | 100 | 894.4 |
| 20260505232437 | 12 | 213 | 43.5 | 74.0 | 0.00 | 0.00 | 0.00 | 100 | 890.0 |
| 20260505232337 | 12 | 211 | 45.1 | 74.0 | 0.00 | 0.00 | 0.00 | 100 | 896.7 |
| 20260505232236 | 12 | 210 | 45.1 | 74.0 | 0.00 | 0.00 | 0.00 | 100 | 889.2 |
| 20260505232035 | 12 | 211 | 40.2 | 74.0 | 0.00 | 0.00 | 0.00 | 100 | 890.4 |
| 20260505231835 | 12 | 217 | 38.6 | 72.4 | 0.00 | 0.00 | 0.00 | 100 | 897.0 |
| 20260505231634 | 12 | 218 | 41.8 | 72.4 | 0.00 | 0.00 | 0.00 | 100 | 890.7 |
| 20260505231433 | 12 | 222 | 40.2 | 72.4 | 0.00 | 0.00 | 0.00 | 100 | 894.4 |
| 20260505231334 | 12 | 220 | 38.6 | 64.4 | 0.00 | 0.00 | 0.00 | 100 | 889.8 |
| 20260505231232 | 12 | 217 | 40.2 | 66.0 | 0.00 | 0.00 | 0.00 | 100 | 891.7 |
| 20260505231032 | 12 | 215 | 41.8 | 69.2 | 0.00 | 0.00 | 0.00 | 100 | 895.5 |
| 20260505230831 | 12 | 214 | 43.5 | 69.2 | 0.00 | 0.00 | 0.00 | 100 | 889.6 |
| 20260505230630 | 12 | 218 | 38.6 | 69.2 | 0.00 | 0.00 | 0.00 | 100 | 895.6 |
| 20260505230429 | 12 | 221 | 35.4 | 57.9 | 0.00 | 0.00 | 0.00 | 100 | 889.8 |
| 20260505230330 | 12 | 221 | 37.0 | 62.8 | 0.00 | 0.00 | 0.00 | 100 | 890.5 |
| 20260505230225 | 12 | 220 | 38.6 | 67.6 | 0.00 | 0.00 | 0.00 | 100 | 893.2 |
| 20260505230025 | 12 | 211 | 45.1 | 90.1 | 0.00 | 0.00 | 0.00 | 100 | 889.5 |
| 20260505225824 | 13 | 210 | 48.3 | 90.1 | 0.00 | 0.00 | 0.00 | 100 | 895.5 |
| 20260505225624 | 12 | 215 | 41.8 | 78.9 | 0.00 | 0.00 | 0.00 | 100 | 895.0 |
| 20260505225423 | 13 | 211 | 41.8 | 67.6 | 0.00 | 0.00 | 0.00 | 100 | 889.6 |
| 20260505225324 | 13 | 211 | 41.8 | 74.0 | 0.00 | 0.00 | 0.00 | 100 | 891.4 |
| 20260505225222 | 12 | 209 | 40.2 | 74.0 | 0.00 | 0.00 | 0.00 | 100 | 896.2 |
| 20260505225022 | 12 | 211 | 40.2 | 74.0 | 0.00 | 0.00 | 0.00 | 100 | 889.8 |
| 20260505224821 | 13 | 211 | 43.5 | 82.1 | 0.00 | 0.00 | 0.00 | 100 | 896.0 |
| 20260505224620 | 12 | 212 | 40.2 | 82.1 | 0.00 | 0.00 | 0.00 | 100 | 889.8 |
| 20260505224420 | 12 | 214 | 33.8 | 59.5 | 0.00 | 0.00 | 0.00 | 100 | 890.2 |
| 20260505224319 | 12 | 212 | 33.8 | 59.5 | 0.00 | 0.00 | 0.00 | 100 | 891.9 |
| 20260505224146 | 12 | 212 | 33.8 | 82.1 | 0.00 | 0.00 | 0.00 | 100 | 895.8 |
| 20260505224043 | 12 | 216 | 35.4 | 82.1 | 0.00 | 0.00 | 0.00 | 100 | 890.2 |
| 20260505223840 | 12 | 219 | 40.2 | 82.1 | 0.00 | 0.00 | 0.00 | 100 | 892.9 |
| 20260505223638 | 12 | 218 | 37.0 | 66.0 | 0.00 | 0.00 | 0.00 | 100 | 891.0 |
| 20260505223437 | 12 | 208 | 35.4 | 61.2 | 0.00 | 0.00 | 0.00 | 100 | 891.0 |
| 20260505223236 | 12 | 203 | 32.2 | 56.3 | 0.00 | 0.00 | 0.00 | 100 | 896.7 |
| 20260505223137 | 12 | 205 | 30.6 | 56.3 | 0.00 | 0.00 | 0.00 | 100 | 896.7 |
| 20260505223036 | 12 | 208 | 32.2 | 57.9 | 0.00 | 0.00 | 0.00 | 100 | 893.7 |
| 20260505222835 | 12 | 206 | 33.8 | 57.9 | 0.00 | 0.00 | 0.00 | 100 | 890.9 |
| 20260505222634 | 12 | 199 | 35.4 | 57.9 | 0.00 | 0.00 | 0.00 | 100 | 894.7 |
| 20260505222433 | 12 | 202 | 30.6 | 61.2 | 0.00 | 0.00 | 0.00 | 100 | 894.0 |
| 20260505222235 | 12 | 203 | 32.2 | 59.5 | 0.00 | 0.00 | 0.00 | 100 | 892.6 |
| 20260505222232 | 12 | 203 | 32.2 | 59.5 | 0.00 | 0.00 | 0.00 | 100 | 891.3 |
| 20260505222132 | 12 | 203 | 33.8 | 59.5 | 0.00 | 0.00 | 0.00 | 100 | 891.3 |
| 20260505222020 | 12 | 203 | 35.4 | 59.5 | 0.00 | 0.00 | 0.00 | 100 | 896.8 |
| 20260505221819 | 12 | 207 | 32.2 | 56.3 | 0.00 | 0.00 | 0.00 | 100 | 896.2 |
| 20260505221618 | 12 | 210 | 29.0 | 53.1 | 0.00 | 0.00 | 0.00 | 100 | 894.2 |
| 20260505221418 | 12 | 210 | 27.4 | 49.9 | 0.00 | 0.00 | 0.00 | 100 | 891.3 |
| 20260505221219 | 12 | 207 | 30.6 | 59.5 | 0.00 | 0.00 | 0.00 | 100 | 892.7 |
| 20260505221216 | 12 | 207 | 30.6 | 59.5 | 0.00 | 0.00 | 0.00 | 100 | 895.5 |
| 20260505221116 | 12 | 207 | 30.6 | 59.5 | 0.00 | 0.00 | 0.00 | 100 | 895.5 |
| 20260505220833 | 12 | 202 | 29.0 | 51.5 | 0.00 | 0.00 | 0.00 | 100 | 896.7 |
| 20260505220629 | 12 | 201 | 25.7 | 38.6 | 0.00 | 0.00 | 0.00 | 100 | 892.9 |
| 20260505220425 | 12 | 199 | 25.7 | 46.7 | 0.00 | 0.00 | 0.00 | 100 | 891.9 |
| 20260505220324 | 12 | 196 | 25.7 | 46.7 | 0.00 | 0.00 | 0.00 | 100 | 892.9 |
| 20260505220221 | 12 | 199 | 30.6 | 49.9 | 0.00 | 0.00 | 0.00 | 100 | 891.5 |
| 20260505220020 | 13 | 207 | 30.6 | 49.9 | 0.00 | 0.00 | 0.00 | 100 | 893.5 |
| 20260505215819 | 13 | 208 | 30.6 | 59.5 | 0.00 | 0.00 | 0.00 | 100 | 891.5 |
| 20260505215618 | 13 | 203 | 32.2 | 59.5 | 0.00 | 0.00 | 0.00 | 100 | 893.5 |
| 20260505215418 | 13 | 203 | 33.8 | 59.5 | 0.00 | 0.00 | 0.00 | 100 | 893.1 |
| 20260505215318 | 13 | 205 | 30.6 | 53.1 | 0.00 | 0.00 | 0.00 | 100 | 893.9 |
| 20260505215217 | 13 | 208 | 29.0 | 48.3 | 0.00 | 0.00 | 0.00 | 100 | 893.9 |
| 20260505215016 | 13 | 206 | 30.6 | 59.5 | 0.00 | 0.00 | 0.00 | 100 | 895.2 |
| 20260505214815 | 13 | 200 | 35.4 | 59.5 | 0.00 | 0.00 | 0.00 | 100 | 893.6 |
| 20260505214614 | 13 | 203 | 35.4 | 64.4 | 0.00 | 0.00 | 0.00 | 100 | 892.2 |
| 20260505214414 | 13 | 205 | 40.2 | 64.4 | 0.00 | 0.00 | 0.00 | 100 | 892.0 |
| 20260505214314 | 13 | 202 | 38.6 | 64.4 | 0.00 | 0.00 | 0.00 | 100 | 894.8 |
| 20260505214212 | 13 | 201 | 33.8 | 64.4 | 0.00 | 0.00 | 0.00 | 100 | 891.5 |
| 20260505214012 | 13 | 200 | 29.0 | 62.8 | 0.00 | 0.00 | 0.00 | 100 | 893.2 |
| 20260505213811 | 13 | 198 | 30.6 | 56.3 | 0.00 | 0.00 | 0.00 | 100 | 896.6 |
| 20260505213610 | 13 | 201 | 32.2 | 61.2 | 0.00 | 0.00 | 0.00 | 100 | 892.1 |
| 20260505213407 | 13 | 207 | 33.8 | 62.8 | 0.00 | 0.00 | 0.00 | 100 | 894.4 |
| 20260505213305 | 13 | 205 | 33.8 | 67.6 | 0.00 | 0.00 | 0.00 | 100 | 895.9 |
| 20260505213029 | 13 | 201 | 29.0 | 67.6 | 0.00 | 0.00 | 0.00 | 100 | 891.4 |
| 20260505212928 | 13 | 201 | 27.4 | 51.5 | 0.00 | 0.00 | 0.00 | 100 | 891.9 |
| 20260505212825 | 13 | 201 | 25.7 | 51.5 | 0.00 | 0.00 | 0.00 | 100 | 892.9 |
| 20260505212621 | 13 | 200 | 29.0 | 51.5 | 0.00 | 0.00 | 0.00 | 100 | 894.6 |
| 20260505212417 | 13 | 203 | 29.0 | 51.5 | 0.00 | 0.00 | 0.00 | 100 | 893.3 |
| 20260505212216 | 12 | 205 | 25.7 | 51.5 | 0.00 | 0.00 | 0.00 | 100 | 893.8 |
| 20260505212016 | 12 | 210 | 27.4 | 51.5 | 0.00 | 0.00 | 0.00 | 100 | 896.9 |
| 20260505211915 | 12 | 211 | 25.7 | 51.5 | 0.00 | 0.00 | 0.00 | 100 | 892.9 |
| 20260505211750 | 13 | 208 | 27.4 | 41.8 | 0.00 | 0.00 | 0.00 | 100 | 897.1 |
| 20260505211649 | 13 | 204 | 25.7 | 41.8 | 0.00 | 0.00 | 0.00 | 100 | 892.3 |
| 20260505211506 | 13 | 201 | 25.7 | 41.8 | 0.00 | 0.00 | 0.00 | 100 | 895.6 |
| 20260505211405 | 13 | 201 | 27.4 | 53.1 | 0.00 | 0.00 | 0.00 | 100 | 895.6 |
| 20260505211211 | 13 | 201 | 27.4 | 53.1 | 0.00 | 0.00 | 0.00 | 100 | 897.4 |
| 20260505211107 | 13 | 202 | 25.7 | 53.1 | 0.00 | 0.00 | 0.00 | 100 | 892.2 |
| 20260505210906 | 13 | 207 | 24.1 | 38.6 | 0.00 | 0.00 | 0.00 | 100 | 892.8 |
| 20260505210745 | 13 | 209 | 19.3 | 35.4 | 0.00 | 0.00 | 0.00 | 100 | 896.6 |
| 20260505210705 | 13 | 209 | 19.3 | 35.4 | 0.00 | 0.00 | 0.00 | 100 | 896.6 |
| 20260505210503 | 13 | 205 | 20.9 | 35.4 | 0.00 | 0.00 | 0.00 | 100 | 897.4 |
| 20260505210303 | 13 | 204 | 22.5 | 37.0 | 0.00 | 0.00 | 0.00 | 100 | 892.7 |
| 20260505210203 | 13 | 205 | 20.9 | 37.0 | 0.00 | 0.00 | 0.00 | 100 | 892.7 |
| 20260505210050 | 13 | 208 | 20.9 | 37.0 | 0.00 | 0.00 | 0.00 | 100 | 893.9 |
| 20260505205844 | 13 | 210 | 22.5 | 38.6 | 0.00 | 0.00 | 0.00 | 100 | 893.7 |